Погода в Тиме

Россия / Курская область     51°37′18″N   37°07′20″E
темп.,
°C
ветер,
м/с
пор.,
м/с
влажн.,
%
обл.,
%
осадки,
мм/ч
давл.,
гПа
погр.,
м
15 мая, сб
сб1500:00+15ююз369656 2.9 1009115
03:00+13ююз22890 3.9 101025
06:00+13ююз379191 0.0 1010153
09:00+16ююз5878100 0.0 1011460
12:00+20ююз68615 0.0 10121426
15:00+21ююз79545 0.0 10122198
18:00+19ююз586916 0.3 1012496
21:00+14ююз34792 0.4 101346
16 мая, вс
вс1600:00+13юз22865 0.0 101419
03:00+13ю2284100 0.0 101411
06:00+13ююв34854 0.0 101483
09:00+19ю34675 0.0 1015423
12:00+22ю235399 0.0 10141604
15:00+23ююв1247100 0.0 10141650
18:00+22св236112 0.0 1012133
21:00+17св467380 0.0 101388
17 мая, пн
пн1700:00+15св4108743 1.2 1012172
03:00+14всв499482 1.2 1010147
06:00+15в512847 0.0 1010213
09:00+20вюв612698 0.0 1009406
12:00+24вюв815545 0.0 10081354
15:00+25юв8145721 0.0 10071782
18:00+23юв7136479 0.0 1006742
21:00+18юв4127696 0.0 1006238
18 мая, вт
вт1800:00+17юв4118695 0.0 1006244
03:00+15юв4109484 0.0 1006234
06:00+15ююв4109434 0.0 1006357
09:00+17ю71178100 0.0 1006795
12:00+19ю91172100 0.0 10061206
15:00+21ю796533 0.4 10061455
18:00+19ю59795 1.4 1006901
21:00+15ююв41190100 3.1 1007228
19 мая, ср
ср1900:00+14ююв4119298 0.1 1006258
03:00+14ююв51395100 0.8 1004382
06:00+14ю5997100 1.7 1004490
09:00+14ю71092100 7.2 1004668
12:00+14ююз8118348 2.1 10051077
15:00+11зюз91587100 2.4 1007920
18:00+13з714765 0.1 10091331
21:00+10юз36895 0.1 1011101